Simultaneous Nadir Overpasses (SNOs) Predictions

Prediction of SNOs between GOES-15 and NPP Satellite Orbit:

Table of predicted SNOs for the next 14.0 days since TLE Epoch: 8/24/2024
Index Date Time (GOES-15) GOES-15 Lat,Lon NPP Lat,Lon Distance(km) Time Diff (sec)
1 08/25/2024 09:33:57 -0.41, 61.56 -1.32, 57.58 454.31 80
2 08/26/2024 09:17:52 -0.41, 61.55 -0.26, 62.10 63.76 80
3 08/28/2024 21:20:53 0.40, 61.59 0.46, 61.38 24.12 80
4 08/29/2024 20:59:29 0.40, 61.58 -0.60, 65.90 492.98 80
5 08/31/2024 09:21:24 -0.39, 61.50 -0.61, 60.60 103.04 80
6 09/01/2024 09:05:18 -0.39, 61.49 0.40, 65.14 414.93 80
7 09/02/2024 21:27:05 0.39, 61.53 0.78, 59.87 189.55 80
8 09/03/2024 21:05:39 0.39, 61.53 -0.23, 64.41 327.76 80
9 09/05/2024 09:27:36 -0.39, 61.46 -0.89, 59.09 269.52 80
10 09/06/2024 09:11:29 -0.39, 61.45 0.07, 63.64 248.47 80
